OK,45,37,1017,45,2014-10-01T01:40:00,0,28072787,206237
OK,45,37,1017,45,2014-10-01T01:45:00,0,28073234,206237
OK,45,37,1017,45,2014-10-01T01:50:00,0,28073682,206237
OK,45,37,1017,45,2014-10-01T01:55:00,0,28074000,206237
OK,45,37,1017,45,2014-10-01T02:00:00,0,28074449,206237
OK,45,37,1017,45,2014-10-01T02:05:00,0,28074889,206237
OK,45,37,1017,45,2014-10-01T02:10:00,0,28075338,206237
OK,45,37,1017,45,2014-10-01T02:15:00,0,28075787,206237
OK,45,37,1017,45,2014-10-01T02:20:00,0,28076170,206237
OK,45,37,1017,45,2014-10-01T02:25:00,0,28076619,206237
OK,45,37,1017,45,2014-10-01T02:30:00,0,28077068,206237
OK,45,37,1017,45,2014-10-01T02:35:00,0,28077517,206237
OK,45,37,1017,45,2014-10-01T02:40:00,0,28077920,206237
OK,45,37,1017,45,2014-10-01T02:45:00,0,28078369,206237
OK,45,37,1017,45,2014-10-01T02:50:00,0,28078814,206237
OK,45,37,1017,45,2014-10-01T02:55:00,0,28079263,206237
OK,45,37,1017,45,2014-10-01T03:00:00,0,28079705,206237
OK,45,37,1017,45,2014-10-01T03:05:00,0,28080154,206237
OK,45,37,1017,45,2014-10-01T03:10:00,0,28080488,206237
OK,45,37,1017,45,2014-10-01T03:15:00,0,28080937,206237
OK,45,37,1017,45,2014-10-01T03:20:00,0,28081386,206237
OK,45,37,1017,45,2014-10-01T03:25:00,0,28081833,206237
OK,45,37,1017,45,2014-10-01T03:30:00,0,28082282,206237
OK,45,37,1017,45,2014-10-01T03:35:00,0,28082715,206237
OK,45,37,1017,45,2014-10-01T03:40:00,0,28083147,206237
OK,45,37,1017,45,2014-10-01T03:45:00,0,28083596,206237
OK,45,37,1017,45,2014-10-01T03:50:00,0,28084045,206237
OK,45,37,1017,45,2014-10-01T03:55:00,0,28084486,206237
OK,45,37,1017,45,2014-10-01T04:00:00,0,28084911,206237
OK,45,37,1017,45,2014-10-01T04:05:00,0,28085360,206237
OK,45,37,1017,45,2014-10-01T04:10:00,0,28085805,206237
OK,45,37,1017,45,2014-10-01T04:15:00,0,28086254,206237
OK,45,37,1017,45,2014-10-01T04:20:00,0,28086696,206237
OK,45,37,1017,45,2014-10-01T04:25:00,0,28087145,206237
OK,45,37,1017,45,2014-10-01T04:30:00,0,28087590,206237
OK,45,37,1017,45,2014-10-01T04:35:00,0,28088039,206237
OK,45,37,1017,45,2014-10-01T04:40:00,0,28088463,206237
OK,45,37,1017,45,2014-10-01T04:45:00,0,28088912,206237
OK,45,37,1017,45,2014-10-01T04:50:00,0,28089342,206237
OK,45,37,1017,45,2014-10-01T04:55:00,0,28089791,206237
OK,45,37,1017,45,2014-10-01T05:00:00,0,28090240,206237
OK,45,37,1017,45,2014-10-01T05:05:00,0,28090584,206237
OK,45,37,1017,45,2014-10-01T05:10:00,0,28091033,206237
OK,45,37,1017,45,2014-10-01T05:15:00,0,28091482,206237
OK,45,37,1017,45,2014-10-01T05:20:00,0,28091899,206237
OK,45,37,1017,45,2014-10-01T05:25:00,0,28092348,206237
OK,45,37,1017,45,2014-10-01T05:30:00,0,28092792,206237
OK,45,37,1017,45,2014-10-01T05:35:00,0,28093233,206237
OK,45,37,1017,45,2014-10-01T05:40:00,0,28093664,206237
OK,45,37,1017,45,2014-10-01T05:45:00,0,28094113,206237
OK,45,37,1017,45,2014-10-01T05:50:00,0,28094524,206237
OK,45,37,1017,45,2014-10-01T05:55:00,0,28094969,206237
OK,45,37,1017,45,2014-10-01T06:00:00,0,28095416,206237
OK,45,37,1017,45,2014-10-01T06:05:00,0,28095865,206237
OK,45,37,1017,45,2014-10-01T06:10:00,0,28096278,206237
OK,45,37,1017,45,2014-10-01T06:15:00,0,28096727,206237
OK,45,37,1017,45,2014-10-01T06:20:00,0,28097161,206237
OK,45,37,1017,45,2014-10-01T06:25:00,0,28097610,206237
OK,45,37,1017,45,2014-10-01T06:30:00,0,28098059,206237
OK,45,37,1017,45,2014-10-01T06:35:00,0,28098496,206237
OK,45,37,1017,45,2014-10-01T06:40:00,0,28098940,206237
OK,45,37,1017,45,2014-10-01T06:45:00,0,28099388,206237
OK,45,37,1017,45,2014-10-01T06:50:00,0,28099731,206237
OK,45,37,1017,45,2014-10-01T06:55:00,0,28100180,206237
OK,45,37,1017,45,2014-10-01T07:00:00,0,28100487,206237
OK,45,37,1017,45,2014-10-01T07:05:00,0,28100936,206237
OK,45,37,1017,45,2014-10-01T07:10:00,0,28101307,206237
OK,45,37,1017,45,2014-10-01T07:15:00,0,28101756,206237
OK,45,37,1017,45,2014-10-01T07:20:00,0,28102192,206237
OK,45,37,1017,45,2014-10-01T07:25:00,0,28102641,206237
OK,45,37,1017,45,2014-10-01T07:30:00,0,28103069,206237
OK,45,37,1017,45,2014-10-01T07:35:00,0,28103515,206237
OK,45,37,1017,45,2014-10-01T07:40:00,0,28103960,206237
OK,45,37,1017,45,2014-10-01T07:45:00,0,28104405,206237
OK,45,37,1017,45,2014-10-01T07:50:00,0,28104846,206237
OK,45,37,1017,45,2014-10-01T07:55:00,0,28105291,206237
OK,45,37,1017,45,2014-10-01T08:00:00,0,28105731,206237
OK,45,37,1017,45,2014-10-01T08:05:00,0,28106180,206237
OK,45,37,1017,45,2014-10-01T08:10:00,0,28106617,206237
OK,45,37,1017,45,2014-10-01T08:15:00,0,28107023,206237
OK,45,37,1017,45,2014-10-01T08:20:00,0,28107455,206237
OK,45,37,1017,45,2014-10-01T08:25:00,0,28107904,206237
OK,45,37,1017,45,2014-10-01T08:30:00,0,28108343,206237
OK,37,45,1017,37,2014-10-01T08:35:00,2,28108792,206237
OK,41,40,1017,41,2014-10-01T08:40:00,1,28109220,206237
OK,41,40,1017,41,2014-10-01T08:45:00,0,28109669,206237
OK,59,28,1017,59,2014-10-01T08:50:00,1,28110012,206237
OK,59,28,1017,59,2014-10-01T08:55:00,1,28110461,206237
OK,59,28,1017,59,2014-10-01T09:00:00,0,28110884,206237
OK,59,28,1017,59,2014-10-01T09:05:00,0,28111333,206237
OK,59,28,1017,59,2014-10-01T09:10:00,0,28111762,206237
OK,41,40,1017,41,2014-10-01T09:15:00,1,28112211,206237
OK,41,40,1017,41,2014-10-01T09:20:00,1,28112552,206237
OK,41,40,1017,41,2014-10-01T09:25:00,0,28113001,206237
OK,41,40,1017,41,2014-10-01T09:30:00,0,28113425,206237
OK,41,40,1017,41,2014-10-01T09:35:00,0,28113874,206237
OK,41,40,1017,41,2014-10-01T09:40:00,0,28114306,206237
OK,41,40,1017,41,2014-10-01T09:45:00,0,28114755,206237
OK,41,40,1017,41,2014-10-01T09:50:00,0,28115109,206237
OK,48,34,1017,48,2014-10-01T10:00:00,1,28115970,206237
OK,48,34,1017,48,2014-10-01T10:05:00,0,28116419,206237
OK,69,24,1017,69,2014-10-01T10:10:00,1,28116827,206237
OK,69,24,1017,69,2014-10-01T10:15:00,1,28117276,206237
OK,56,29,1017,56,2014-10-01T10:20:00,2,28117701,206237
OK,56,29,1017,56,2014-10-01T10:25:00,0,28118150,206237
OK,49,34,1017,49,2014-10-01T10:30:00,1,28118595,206237
OK,49,34,1017,49,2014-10-01T10:35:00,1,28119042,206237
OK,49,34,1017,49,2014-10-01T10:40:00,0,28119486,206237
OK,49,34,1017,49,2014-10-01T10:45:00,0,28119934,206237
OK,74,22,1017,74,2014-10-01T10:50:00,1,28120382,206237
OK,74,22,1017,74,2014-10-01T10:55:00,1,28120831,206237
OK,74,22,1017,74,2014-10-01T11:00:00,0,28121214,206237
OK,74,22,1017,74,2014-10-01T11:05:00,0,28121663,206237
OK,74,22,1017,74,2014-10-01T11:10:00,0,28122101,206237
OK,74,22,1017,74,2014-10-01T11:15:00,0,28122550,206237
OK,74,22,1017,74,2014-10-01T11:20:00,0,28122991,206237
OK,31,54,1017,31,2014-10-01T11:25:00,1,28123440,206237
OK,31,54,1017,31,2014-10-01T11:30:00,1,28123872,206237
OK,31,54,1017,31,2014-10-01T11:35:00,0,28124321,206237
OK,31,54,1017,31,2014-10-01T11:40:00,0,28124723,206237
OK,31,54,1017,31,2014-10-01T11:45:00,0,28125172,206237
OK,49,34,1017,49,2014-10-01T11:50:00,1,28125601,206237
OK,49,34,1017,49,2014-10-01T11:55:00,1,28126050,206237
OK,49,34,1017,49,2014-10-01T12:00:00,0,28126402,206237
OK,49,34,1017,49,2014-10-01T12:10:00,0,28127300,206237
OK,49,34,1017,49,2014-10-01T12:15:00,0,28127749,206237
OK,40,41,1017,40,2014-10-01T12:20:00,1,28128177,206237
OK,40,41,1017,40,2014-10-01T12:25:00,2,28128626,206237
OK,41,40,1017,41,2014-10-01T12:30:00,1,28129061,206237
OK,41,40,1017,41,2014-10-01T12:35:00,0,28129510,206237
OK,41,40,1017,41,2014-10-01T12:40:00,0,28129944,206237
OK,41,40,1017,41,2014-10-01T12:45:00,0,28130393,206237
OK,41,40,1017,41,2014-10-01T12:50:00,0,28130821,206237
OK,41,40,1017,41,2014-10-01T12:55:00,0,28131270,206237
OK,42,39,1017,42,2014-10-01T13:00:00,2,28131707,206237
OK,42,39,1017,42,2014-10-01T13:05:00,2,28132156,206237
OK,37,45,1017,37,2014-10-01T13:10:00,0,28132594,206237
OK,37,45,1017,37,2014-10-01T13:15:00,0,28133041,206237
OK,37,45,1017,37,2014-10-01T13:20:00,0,28133479,206237
OK,43,39,1017,43,2014-10-01T13:25:00,1,28133928,206237
OK,43,39,1017,43,2014-10-01T13:30:00,1,28134367,206237
OK,43,39,1017,43,2014-10-01T13:35:00,0,28134816,206237
OK,43,39,1017,43,2014-10-01T13:40:00,0,28135235,206237
OK,43,39,1017,43,2014-10-01T13:45:00,0,28135684,206237
OK,43,39,1017,43,2014-10-01T13:50:00,0,28136121,206237
OK,43,39,1017,43,2014-10-01T13:55:00,0,28136570,206237
OK,43,39,1017,43,2014-10-01T14:00:00,0,28137010,206237
OK,43,39,1017,43,2014-10-01T14:05:00,0,28137459,206237
OK,36,46,1017,36,2014-10-01T14:10:00,1,28137893,206237
OK,33,50,1017,33,2014-10-01T14:15:00,2,28138342,206237
OK,30,55,1017,30,2014-10-01T14:20:00,1,28138770,206237
OK,30,55,1017,30,2014-10-01T14:25:00,0,28139219,206237
OK,46,36,1017,46,2014-10-01T14:30:00,1,28139630,206237
OK,46,36,1017,46,2014-10-01T14:35:00,1,28140079,206237
OK,46,36,1017,46,2014-10-01T14:40:00,0,28140521,206237
OK,46,36,1017,46,2014-10-01T14:45:00,0,28140970,206237
OK,46,36,1017,46,2014-10-01T14:50:00,0,28141396,206237
OK,46,36,1017,46,2014-10-01T14:55:00,0,28141845,206237
OK,46,36,1017,46,2014-10-01T15:00:00,0,28142273,206237
OK,46,36,1017,46,2014-10-01T15:05:00,0,28142722,206237
OK,46,36,1017,46,2014-10-01T15:10:00,0,28143149,206237
OK,46,36,1017,46,2014-10-01T15:15:00,0,28143598,206237
OK,46,36,1017,46,2014-10-01T15:20:00,0,28144046,206237
OK,46,36,1017,46,2014-10-01T15:25:00,0,28144495,206237
OK,46,36,1017,46,2014-10-01T15:30:00,0,28144916,206237
OK,46,36,1017,46,2014-10-01T15:35:00,0,28145330,206237
OK,33,50,1017,33,2014-10-01T15:40:00,1,28145779,206237
OK,33,50,1017,33,2014-10-01T15:45:00,1,28146228,206237
OK,33,50,1017,33,2014-10-01T15:50:00,0,28146677,206237
OK,33,50,1017,33,2014-10-01T15:55:00,0,28147085,206237
OK,33,50,1017,33,2014-10-01T16:00:00,0,28147529,206237
OK,33,50,1017,33,2014-10-01T16:05:00,0,28147978,206237
OK,33,50,1017,33,2014-10-01T16:10:00,0,28148379,206237
OK,59,28,1017,59,2014-10-01T16:15:00,1,28148828,206237
OK,59,28,1017,59,2014-10-01T16:20:00,0,28149267,206237
OK,59,28,1017,59,2014-10-01T16:25:00,0,28149716,206237
OK,59,28,1017,59,2014-10-01T16:30:00,0,28150142,206237
OK,59,28,1017,59,2014-10-01T16:35:00,0,28150591,206237
OK,59,28,1017,59,2014-10-01T16:40:00,0,28151009,206237
OK,59,28,1017,59,2014-10-01T16:45:00,0,28151458,206237
OK,59,28,1017,59,2014-10-01T16:50:00,0,28151907,206237
OK,59,28,1017,59,2014-10-01T17:00:00,0,28152356,206237
OK,60,27,1017,60,2014-10-01T17:05:00,1,28152802,206237
OK,60,27,1017,60,2014-10-01T17:10:00,1,28153249,206237
OK,60,27,1017,60,2014-10-01T17:15:00,0,28153698,206237
OK,60,27,1017,60,2014-10-01T17:20:00,0,28154108,206237
OK,41,40,1017,41,2014-10-01T17:25:00,1,28154557,206237
OK,41,40,1017,41,2014-10-01T17:30:00,1,28154999,206237
OK,41,40,1017,41,2014-10-01T17:35:00,0,28155447,206237
OK,41,40,1017,41,2014-10-01T17:40:00,0,28155865,206237
OK,41,40,1017,41,2014-10-01T17:45:00,0,28156314,206237
OK,41,40,1017,41,2014-10-01T17:50:00,0,28156762,206237
OK,41,40,1017,41,2014-10-01T17:55:00,0,28157201,206237
OK,41,40,1017,41,2014-10-01T18:00:00,0,28157631,206237
OK,41,40,1017,41,2014-10-01T18:05:00,0,28158079,206237
OK,41,40,1017,41,2014-10-01T18:10:00,0,28158523,206237
OK,41,40,1017,41,2014-10-01T18:15:00,0,28158969,206237
OK,41,40,1017,41,2014-10-01T18:20:00,0,28159415,206237
OK,53,31,1017,53,2014-10-01T18:25:00,1,28159750,206237
OK,53,31,1017,53,2014-10-01T18:30:00,0,28160199,206237
OK,53,31,1017,53,2014-10-01T18:35:00,0,28160648,206237
OK,53,31,1017,53,2014-10-01T18:40:00,0,28161086,206237
OK,53,31,1017,53,2014-10-01T18:45:00,0,28161535,206237
OK,53,31,1017,53,2014-10-01T18:50:00,0,28161952,206237
OK,36,46,1017,36,2014-10-01T18:55:00,1,28162401,206237
OK,36,46,1017,36,2014-10-01T19:00:00,0,28162795,206237
OK,36,46,1017,36,2014-10-01T19:05:00,0,28163234,206237
OK,36,46,1017,36,2014-10-01T19:10:00,0,28163682,206237
OK,36,46,1017,36,2014-10-01T19:15:00,0,28164131,206237
OK,36,46,1017,36,2014-10-01T19:20:00,0,28164562,206237
OK,36,46,1017,36,2014-10-01T19:25:00,0,28165011,206237
OK,36,46,1017,36,2014-10-01T19:30:00,0,28165436,206237
OK,36,46,1017,36,2014-10-01T19:35:00,0,28165884,206237
OK,36,46,1017,36,2014-10-01T19:40:00,0,28166325,206237
OK,36,46,1017,36,2014-10-01T19:45:00,0,28166687,206237
OK,36,46,1017,36,2014-10-01T19:50:00,0,28167136,206237
OK,36,46,1017,36,2014-10-01T19:55:00,0,28167565,206237
OK,36,46,1017,36,2014-10-01T20:00:00,0,28167998,206237
OK,36,46,1017,36,2014-10-01T20:05:00,0,28168447,206237
OK,36,46,1017,36,2014-10-01T20:10:00,0,28168892,206237
OK,36,46,1017,36,2014-10-01T20:15:00,0,28169341,206237
OK,36,46,1017,36,2014-10-01T20:20:00,0,28169789,206237
OK,36,46,1017,36,2014-10-01T20:25:00,0,28170215,206237
OK,36,46,1017,36,2014-10-01T20:30:00,0,28170660,206237
OK,36,46,1017,36,2014-10-01T20:35:00,0,28171108,206237
OK,36,46,1017,36,2014-10-01T20:40:00,0,28171545,206237
OK,36,46,1017,36,2014-10-01T20:45:00,0,28171991,206237
OK,36,46,1017,36,2014-10-01T20:50:00,0,28172439,206237
OK,44,38,1017,44,2014-10-01T20:55:00,1,28172885,206237
OK,44,38,1017,44,2014-10-01T21:00:00,0,28173331,206237
OK,44,38,1017,44,2014-10-01T21:05:00,0,28173780,206237
OK,44,38,1017,44,2014-10-01T21:10:00,0,28174221,206237
OK,44,38,1017,44,2014-10-01T21:15:00,0,28174670,206237
OK,44,38,1017,44,2014-10-01T21:20:00,0,28175096,206237
OK,44,38,1017,44,2014-10-01T21:25:00,0,28175492,206237
OK,44,38,1017,44,2014-10-01T21:30:00,0,28175941,206237
OK,44,38,1017,44,2014-10-01T21:35:00,0,28176390,206237
OK,44,38,1017,44,2014-10-01T21:40:00,0,28176839,206237
OK,44,38,1017,44,2014-10-01T21:45:00,0,28177195,206237
OK,44,38,1017,44,2014-10-01T21:50:00,0,28177635,206237
OK,44,38,1017,44,2014-10-01T21:55:00,0,28178081,206237
OK,44,38,1017,44,2014-10-01T22:00:00,0,28178530,206237
OK,44,38,1017,44,2014-10-01T22:05:00,0,28178977,206237
OK,44,38,1017,44,2014-10-01T22:10:00,0,28179411,206237
OK,44,38,1017,44,2014-10-01T22:15:00,0,28179854,206237
OK,44,38,1017,44,2014-10-01T22:20:00,0,28180301,206237
OK,44,38,1017,44,2014-10-01T22:25:00,0,28180699,206237
OK,44,38,1017,44,2014-10-01T22:30:00,0,28181148,206237
OK,44,38,1017,44,2014-10-01T22:35:00,0,28181572,206237
OK,44,38,1017,44,2014-10-01T22:40:00,0,28182020,206237
OK,44,38,1017,44,2014-10-01T22:45:00,0,28182467,206237
OK,44,38,1017,44,2014-10-01T22:50:00,0,28182916,206237
OK,44,38,1017,44,2014-10-01T22:55:00,0,28183333,206237
OK,44,38,1017,44,2014-10-01T23:00:00,0,28183766,206237
OK,44,38,1017,44,2014-10-01T23:05:00,0,28184211,206237
OK,44,38,1017,44,2014-10-01T23:10:00,0,28184660,206237
OK,44,38,1017,44,2014-10-01T23:15:00,0,28185095,206237
OK,44,38,1017,44,2014-10-01T23:20:00,0,28185543,206237
OK,44,38,1017,44,2014-10-01T23:25:00,0,28185974,206237
OK,44,38,1017,44,2014-10-01T23:30:00,0,28186366,206237
OK,44,38,1017,44,2014-10-01T23:40:00,0,28187213,206237
OK,44,38,1017,44,2014-10-01T23:55:00,0,28188545,206237
OK,44,38,1017,44,2014-10-02T00:05:00,0,28189430,206237
OK,44,38,1017,44,2014-10-02T00:10:00,0,28189852,206237
OK,44,38,1017,44,2014-10-02T00:15:00,0,28190301,206237
OK,44,38,1017,44,2014-10-02T00:20:00,0,28190654,206237
OK,44,38,1017,44,2014-10-02T00:30:00,0,28191552,206237
OK,44,38,1017,44,2014-10-02T00:35:00,0,28191858,206237
OK,44,38,1017,44,2014-10-02T00:45:00,0,28192740,206237
OK,44,38,1017,44,2014-10-02T00:50:00,0,28193184,206237
OK,44,38,1017,44,2014-10-02T00:55:00,0,28193551,206237
OK,44,38,1017,44,2014-10-02T01:05:00,0,28194449,206237
OK,44,38,1017,44,2014-10-02T01:10:00,0,28194898,206237
OK,44,38,1017,44,2014-10-02T01:15:00,0,28195134,206237
OK,44,38,1017,44,2014-10-02T01:25:00,0,28196032,206237
OK,44,38,1017,44,2014-10-02T01:30:00,0,28196316,206237
OK,44,38,1017,44,2014-10-02T01:35:00,0,28196765,206237
OK,44,38,1017,44,2014-10-02T01:40:00,0,28197188,206237
OK,44,38,1017,44,2014-10-02T01:45:00,0,28197637,206237
OK,44,38,1017,44,2014-10-02T01:50:00,0,28198085,206237
OK,44,38,1017,44,2014-10-02T01:55:00,0,28198533,206237
OK,44,38,1017,44,2014-10-02T02:00:00,0,28198982,206237
OK,44,38,1017,44,2014-10-02T02:05:00,0,28199354,206237
OK,44,38,1017,44,2014-10-02T02:10:00,0,28199796,206237
OK,44,38,1017,44,2014-10-02T02:15:00,0,28200238,206237
OK,44,38,1017,44,2014-10-02T02:20:00,0,28200681,206237
OK,44,38,1017,44,2014-10-02T02:25:00,0,28201130,206237
OK,44,38,1017,44,2014-10-02T02:30:00,0,28201561,206237
OK,44,38,1017,44,2014-10-02T02:45:00,0,28202459,206237
OK,44,38,1017,44,2014-10-02T02:50:00,0,28202901,206237
OK,44,38,1017,44,2014-10-02T02:55:00,0,28203349,206237
OK,44,38,1017,44,2014-10-02T03:00:00,0,28203784,206237
OK,44,38,1017,44,2014-10-02T03:10:00,0,28204233,206237
OK,44,38,1017,44,2014-10-02T03:25:00,0,28204682,206237
OK,44,38,1017,44,2014-10-02T03:30:00,0,28205131,206237
OK,44,38,1017,44,2014-10-02T03:35:00,0,28205559,206237
OK,44,38,1017,44,2014-10-02T03:40:00,0,28206006,206237
OK,44,38,1017,44,2014-10-02T03:45:00,0,28206389,206237
OK,44,38,1017,44,2014-10-02T03:55:00,0,28207287,206237
OK,44,38,1017,44,2014-10-02T04:00:00,0,28207706,206237
OK,44,38,1017,44,2014-10-02T04:05:00,0,28208155,206237
OK,44,38,1017,44,2014-10-02T04:10:00,0,28208582,206237
OK,44,38,1017,44,2014-10-02T04:15:00,0,28209031,206237
OK,44,38,1017,44,2014-10-02T04:20:00,0,28209469,206237
OK,44,38,1017,44,2014-10-02T04:25:00,0,28209918,206237
OK,44,38,1017,44,2014-10-02T04:30:00,0,28210341,206237
OK,44,38,1017,44,2014-10-02T04:35:00,0,28210790,206237
OK,44,38,1017,44,2014-10-02T04:40:00,0,28211215,206237
OK,44,38,1017,44,2014-10-02T04:45:00,0,28211659,206237
OK,44,38,1017,44,2014-10-02T04:50:00,0,28212037,206237
OK,44,38,1017,44,2014-10-02T04:55:00,0,28212486,206237
OK,44,38,1017,44,2014-10-02T05:00:00,0,28212915,206237
OK,44,38,1017,44,2014-10-02T05:05:00,0,28213364,206237
OK,44,38,1017,44,2014-10-02T05:10:00,0,28213802,206237
OK,44,38,1017,44,2014-10-02T05:15:00,0,28214251,206237
OK,44,38,1017,44,2014-10-02T05:20:00,0,28214664,206237
OK,44,38,1017,44,2014-10-02T05:25:00,0,28215113,206237
OK,44,38,1017,44,2014-10-02T05:30:00,0,28215529,206237
OK,44,38,1017,44,2014-10-02T05:35:00,0,28215978,206237
OK,44,38,1017,44,2014-10-02T05:40:00,0,28216317,206237
OK,44,38,1017,44,2014-10-02T05:45:00,0,28216757,206237
OK,44,38,1017,44,2014-10-02T05:50:00,0,28217204,206237
OK,44,38,1017,44,2014-10-02T05:55:00,0,28217653,206237
OK,44,38,1017,44,2014-10-02T06:00:00,0,28218092,206237
OK,44,38,1017,44,2014-10-02T06:05:00,0,28218541,206237
OK,44,38,1017,44,2014-10-02T06:10:00,0,28218961,206237
OK,44,38,1017,44,2014-10-02T06:15:00,0,28219410,206237
OK,44,38,1017,44,2014-10-02T06:20:00,0,28219783,206237
OK,44,38,1017,44,2014-10-02T06:25:00,0,28220232,206237
OK,44,38,1017,44,2014-10-02T06:30:00,0,28220666,206237
OK,44,38,1017,44,2014-10-02T06:35:00,0,28221115,206237
OK,44,38,1017,44,2014-10-02T06:40:00,0,28221496,206237
OK,44,38,1017,44,2014-10-02T06:45:00,0,28221782,206237
OK,44,38,1017,44,2014-10-02T07:00:00,0,28222376,206237
OK,44,38,1017,44,2014-10-02T07:05:00,0,28222825,206237
OK,44,38,1017,44,2014-10-02T07:10:00,0,28223256,206237
OK,44,38,1017,44,2014-10-02T07:15:00,0,28223691,206237
OK,44,38,1017,44,2014-10-02T07:20:00,0,28224139,206237
OK,44,38,1017,44,2014-10-02T07:25:00,0,28224494,206237
OK,44,38,1017,44,2014-10-02T07:30:00,0,28224943,206237
OK,31,54,1017,31,2014-10-02T07:35:00,1,28225392,206237
OK,31,54,1017,31,2014-10-02T07:40:00,0,28225714,206237
OK,31,54,1017,31,2014-10-02T07:50:00,0,28226604,206237
OK,39,43,1017,39,2014-10-02T07:55:00,1,28227053,206237
OK,39,43,1017,39,2014-10-02T08:00:00,1,28227468,206237
OK,39,43,1017,39,2014-10-02T08:05:00,0,28227917,206237
OK,39,43,1017,39,2014-10-02T08:10:00,0,28228276,206237
OK,39,43,1017,39,2014-10-02T08:20:00,0,28229135,206237
OK,39,43,1017,39,2014-10-02T08:25:00,0,28229584,206237
OK,39,43,1017,39,2014-10-02T08:30:00,0,28229934,206237
OK,39,43,1017,39,2014-10-02T08:35:00,0,28230383,206237
OK,39,43,1017,39,2014-10-02T08:40:00,0,28230749,206237
OK,39,43,1017,39,2014-10-02T08:45:00,0,28231197,206237
OK,39,43,1017,39,2014-10-02T08:50:00,0,28231621,206237
OK,39,43,1017,39,2014-10-02T08:55:00,0,28232070,206237
OK,39,43,1017,39,2014-10-02T09:00:00,0,28232412,206237
OK,39,43,1017,39,2014-10-02T09:10:00,0,28232861,206237
OK,39,43,1017,39,2014-10-02T09:15:00,0,28233310,206237
OK,39,43,1017,39,2014-10-02T09:20:00,0,28233734,206237
OK,66,25,1017,66,2014-10-02T09:25:00,2,28234183,206237
OK,66,25,1017,66,2014-10-02T09:30:00,2,28234516,206237
OK,59,28,1017,59,2014-10-02T09:40:00,0,28235392,206237
OK,59,28,1017,59,2014-10-02T09:45:00,0,28235841,206237
OK,59,28,1017,59,2014-10-02T09:50:00,0,28236284,206237
OK,59,28,1017,59,2014-10-02T09:55:00,0,28236731,206237
OK,59,28,1017,59,2014-10-02T10:00:00,0,28237134,206237
OK,59,28,1017,59,2014-10-02T10:05:00,0,28237582,206237
OK,59,28,1017,59,2014-10-02T10:10:00,0,28238030,206237
OK,124,13,1017,124,2014-10-02T10:15:00,1,28238477,206237
OK,124,13,1017,124,2014-10-02T10:20:00,1,28238918,206237
OK,124,13,1017,124,2014-10-02T10:25:00,0,28239367,206237
OK,124,13,1017,124,2014-10-02T10:30:00,0,28239797,206237
OK,68,24,1017,68,2014-10-02T10:35:00,1,28240246,206237
OK,68,24,1017,68,2014-10-02T10:40:00,1,28240690,206237
OK,68,24,1017,68,2014-10-02T10:45:00,0,28241139,206237
OK,68,24,1017,68,2014-10-02T10:50:00,0,28241571,206237
OK,68,24,1017,68,2014-10-02T10:55:00,0,28242019,206237
OK,68,24,1017,68,2014-10-02T11:00:00,0,28242415,206237
OK,68,24,1017,68,2014-10-02T11:05:00,0,28242864,206237
OK,68,24,1017,68,2014-10-02T11:10:00,0,28243313,206237
OK,68,24,1017,68,2014-10-02T11:15:00,0,28243638,206237
OK,68,24,1017,68,2014-10-02T11:20:00,0,28244076,206237
OK,68,24,1017,68,2014-10-02T11:25:00,0,28244505,206237
OK,68,24,1017,68,2014-10-02T11:30:00,0,28244954,206237
OK,68,24,1017,68,2014-10-02T11:35:00,0,28245403,206237
OK,68,24,1017,68,2014-10-02T11:40:00,0,28245809,206237
OK,68,24,1017,68,2014-10-02T11:45:00,0,28246258,206237
OK,68,24,1017,68,2014-10-02T11:50:00,0,28246695,206237
OK,68,24,1017,68,2014-10-02T11:55:00,0,28247144,206237
OK,68,24,1017,68,2014-10-02T12:00:00,0,28247590,206237
OK,68,24,1017,68,2014-10-02T12:05:00,0,28248020,206237
OK,68,24,1017,68,2014-10-02T12:10:00,0,28248469,206237
OK,68,24,1017,68,2014-10-02T12:15:00,0,28248916,206237
OK,68,24,1017,68,2014-10-02T12:20:00,0,28249344,206237
OK,68,24,1017,68,2014-10-02T12:25:00,0,28249788,206237
OK,68,24,1017,68,2014-10-02T12:30:00,0,28250207,206237
OK,46,36,1017,46,2014-10-02T12:35:00,1,28250605,206237
OK,49,34,1017,49,2014-10-02T13:20:00,1,28251930,206237
OK,49,34,1017,49,2014-10-02T13:30:00,0,28252514,206237
OK,49,34,1017,49,2014-10-02T13:35:00,0,28252956,206237
OK,49,34,1017,49,2014-10-02T13:40:00,0,28253373,206237
OK,49,34,1017,49,2014-10-02T13:50:00,0,28254227,206237
OK,49,34,1017,49,2014-10-02T13:55:00,0,28254548,206237
OK,49,34,1017,49,2014-10-02T14:10:00,0,28255125,206237
OK,49,34,1017,49,2014-10-02T14:15:00,0,28255574,206237
OK,49,34,1017,49,2014-10-02T14:20:00,0,28256002,206237
OK,49,34,1017,49,2014-10-02T14:25:00,0,28256451,206237
OK,49,34,1017,49,2014-10-02T14:30:00,0,28256879,206237
OK,49,34,1017,49,2014-10-02T14:35:00,0,28257328,206237
OK,49,34,1017,49,2014-10-02T14:40:00,0,28257769,206237
OK,49,34,1017,49,2014-10-02T14:45:00,0,28258217,206237
OK,35,47,1017,35,2014-10-02T14:50:00,1,28258650,206237
OK,35,47,1017,35,2014-10-02T14:55:00,1,28259096,206237
OK,35,47,1017,35,2014-10-02T15:00:00,0,28259545,206237
OK,35,47,1017,35,2014-10-02T15:05:00,0,28259992,206237
OK,35,47,1017,35,2014-10-02T15:10:00,0,28260425,206237
OK,35,47,1017,35,2014-10-02T15:15:00,0,28260874,206237
OK,35,47,1017,35,2014-10-02T15:20:00,0,28261314,206237
OK,35,47,1017,35,2014-10-02T15:25:00,0,28261696,206237
OK,35,47,1017,35,2014-10-02T15:30:00,0,28262126,206237
OK,35,47,1017,35,2014-10-02T15:40:00,0,28263019,206237
OK,91,18,1017,91,2014-10-02T15:45:00,1,28263457,206237
OK,91,18,1017,91,2014-10-02T15:50:00,1,28263898,206237
OK,91,18,1017,91,2014-10-02T15:55:00,0,28264300,206237
OK,91,18,1017,91,2014-10-02T16:00:00,0,28264749,206237
OK,91,18,1017,91,2014-10-02T16:05:00,0,28265187,206237
OK,91,18,1017,91,2014-10-02T16:10:00,0,28265627,206237
OK,91,18,1017,91,2014-10-02T16:15:00,0,28266023,206237